Location: Barnstorf
(52.3827°N, 10.8040°E)
Time: 10:14:55
(UTC+00:00)

Daily predictions for brighter satellites

Satellite Brightness Start Highest point End
(mag) Time Altitude Azimuth Time Altitude Azimuth Time Altitude Azimuth
Cosmos 2285 Rocket 4.3 20:14:56 10° NNW 20:21:14 60° ENE 20:27:32 10° SE
Terra 3.7 20:23:14 10° SSW 20:27:15 27° W 20:31:18 10° NW
CENTAUR R/B 2.8 20:24:01 10° SW 20:29:47 79° NW 20:37:14 10° NE
Cosmos 1758 3.1 20:26:49 10° N 20:30:31 73° ENE 20:34:12 10° SSE
Cosmos 2208 Rocket 4.0 20:31:25 10° SSW 20:36:37 82° ESE 20:41:48 10° NNE
BREEZE-M DEB (TANK) 2.2 20:35:23 10° W 20:37:40 36° S 20:39:36 10° ESE
SPOT 3 Rocket 3.7 20:35:01 10° SSE 20:40:08 78° WSW 20:45:20 10° NNW
YAOGAN 11 4.3 20:37:18 10° NNE 20:41:48 78° WNW 20:46:12 10° SSW
NOSS 2-2 (D) 4.4 20:41:03 10° WSW 20:44:03 38° NW 20:46:54 10° NE
Okean 3 Rocket 3.7 20:41:37 10° NNW 20:46:06 78° W 20:50:29 10° S
Cosmos 2227 4.3 20:40:52 10° SSW 20:46:37 85° ESE 20:52:25 10° NNE
Cosmos 724 4.3 20:41:20 10° NW 20:47:09 79° SW 20:52:53 10° SSE
Ariane Rocket 3.1 20:44:41 10° SSE 20:49:46 82° WSW 20:54:53 10° NNW
Cosmos 2263 Rocket 4.4 20:45:09 10° WSW 20:50:02 30° NW 20:54:56 10° NNE
IRS-1C Rocket 4.2 20:45:03 10° SSE 20:50:19 82° WSW 20:55:37 10° NNW
Okean-O 4.1 20:47:09 10° SSW 20:51:05 32° W 20:55:02 10° NNW
Cosmos 1805 Rocket 3.5 20:48:03 10° N 20:52:24 80° ENE 20:56:44 10° SSE
Cosmos 1340 Rocket 3.1 20:52:04 10° NNW 20:55:48 60° W 20:59:28 10° S
Cosmos 1408 Rocket 3.6 20:52:08 10° N 20:56:33 88° ENE 21:00:59 10° S
NOSS 3-2 (A) 3.1 20:52:19 10° SSW 20:57:23 71° SE 21:03:33 10° NE
USA 215 3.3 20:51:03 10° ESE 20:57:35 81° SSW 21:04:09 10° WNW
Cosmos 1603 4.3 20:52:24 10° NW 20:57:57 51° WSW 21:03:25 10° S
Cosmos 1842 Rocket 4.3 20:54:40 10° SSW 20:59:02 55° WNW 21:03:25 10° N
Cosmos 1743 Rocket 3.7 20:59:37 10° N 21:03:56 64° ENE 21:07:49 13° SSE
Cosmos 1703 3.3 21:04:34 13° SSE 21:07:05 39° E 21:10:05 10° NNE
USA 245 4.3 21:04:03 10° SSW 21:07:27 33° W 21:10:18 10° NNW
Meteor 1-22 Rocket 4.3 21:03:30 10° N 21:08:49 64° ENE 21:13:31 13° SSE
Cosmos 1844 Rocket 3.0 21:03:32 10° SW 21:09:06 71° NW 21:14:41 10° NNE
GEOS 3 Rocket 4.3 21:05:15 10° ESE 21:10:28 56° NE 21:15:45 10° NW
SL-14 R/B 4.0 21:08:14 10° SSW 21:11:50 48° WNW 21:15:29 10° N
CZ-4C R/B 4.3 21:08:23 10° WNW 21:14:26 30° WSW 21:21:31 10° S
Cosmos 1553 Rocket 4.1 21:08:24 10° S 21:14:47 82° E 21:21:07 10° NNE
Cosmos 1833 Rocket 2.8 21:12:13 10° NNW 21:17:53 72° ENE 21:22:56 13° SE
Cosmos 1709 Rocket 4.4 21:13:05 10° N 21:19:19 55° ENE 21:24:50 14° SSE
Cosmos 1151 Rocket 3.1 21:15:11 10° SSW 21:19:31 81° W 21:23:53 10° N
Cosmos 2082 Rocket 3.9 21:18:12 10° NNW 21:22:57 27° NE 21:27:40 10° E
CZ-2C R/B 2.6 21:23:48 14° S 21:25:55 45° W 21:28:35 10° NNW
Cosmos 1953 2.1 21:23:23 10° N 21:26:58 67° ENE 21:29:35 17° SSE
SL-24 R/B - RUBIN 2 4.1 21:25:20 10° WSW 21:29:45 61° NW 21:34:05 10° NE
CZ-4B R/B 4.5 21:25:08 10° S 21:29:56 42° W 21:34:52 10° NNW
Cosmos 1844 4.4 21:24:38 10° SW 21:30:20 58° NW 21:36:05 10° NNE
Okean O Rocket 4.1 21:28:24 10° WSW 21:30:52 15° W 21:33:21 10° NW
Cosmos 2278 Rocket 4.0 21:28:07 11° SE 21:30:55 15° E 21:34:06 10° ENE
Cosmos 1633 Rocket 3.4 21:30:32 10° N 21:34:51 55° ENE 21:38:07 17° SSE
Meteor 1-13 Rocket 4.5 21:33:10 13° S 21:38:23 62° E 21:44:15 10° NNE
NOSS 3-2 (C) 3.2 21:33:48 10° SSW 21:38:47 58° SE 21:44:47 10° NE
NOSS 2-3 (C) 3.7 21:42:37 17° S 21:44:39 33° SE 21:47:56 10° ENE
Cosmos 1745 Rocket 4.1 21:39:25 10° NNW 21:45:42 83° W 21:51:04 15° S
Cosmos 1400 Rocket 4.3 21:45:23 10° N 21:48:27 24° ENE 21:51:03 12° ESE
Cosmos 2056 Rocket 4.1 21:44:07 10° NNW 21:49:05 47° ENE 21:53:26 13° SE
Helios 1A 2.9 21:50:45 10° NNE 21:54:41 63° ESE 21:57:27 18° S
ACS3 Solar Sail 3.8 21:54:10 10° ENE 21:55:45 11° ENE 21:57:20 10° E
GP-B 4.1 21:52:57 10° N 21:57:04 41° W 22:01:09 10° SSW
Cosmos 2344 3.8 21:49:53 10° SSW 21:57:17 47° ESE 22:04:05 10° NE
Helios 1B rocket 2.1 21:57:41 21° SSE 21:59:50 66° ENE 22:03:17 10° N
Iridium 4 Rocket 4.0 21:55:05 10° SSW 22:00:24 58° W 22:05:22 10° N
ARIANE 5 R/B 3.1 21:59:12 17° SE 22:02:26 54° ENE 22:06:46 10° N
Cosmos 1470 Rocket 3.6 22:02:14 10° N 22:06:43 76° E 22:09:41 21° SSE
Okean 2 3.7 22:07:04 22° SSE 22:09:11 44° E 22:12:52 10° NNE
Cosmos 1420 Rocket 4.0 22:04:16 10° NNW 22:09:30 75° WSW 22:13:10 20° SSE
Cosmos 1241 Rocket 4.4 22:03:53 10° SSW 22:10:01 71° SE 22:16:16 10° NE
NOSS 2-3 (D) 3.1 22:08:11 10° SW 22:11:52 86° SE 22:15:49 10° NE
Cosmos 1933 Rocket 4.3 22:09:54 10° N 22:14:01 42° ENE 22:16:54 18° SE
ALOS 2 2.9 22:11:55 19° SE 22:14:56 60° ENE 22:19:17 10° N
Cosmos 1538 Rocket 4.1 22:11:55 10° SSW 22:17:05 76° WNW 22:22:22 10° NNE
Cosmos 2315 Rocket 4.0 22:13:37 15° S 22:18:52 89° E 22:25:08 10° N
Cosmos 1943 Rocket 2.7 22:16:33 19° S 22:20:11 43° ESE 22:25:29 10° NE
Cosmos 2074 Rocket 4.5 22:14:33 10° N 22:20:39 53° ENE 22:25:27 16° SE
CENTAUR R/B 4.3 22:15:26 10° W 22:21:27 39° NNW 22:28:54 10° NE
Meteor 1-21 4.2 22:18:13 17° S 22:22:36 83° E 22:28:18 10° NNE
Cosmos 923 Rocket 4.1 22:21:16 18° S 22:25:05 63° ESE 22:30:16 10° NNE
CZ-2C R/B 3.8 22:21:55 10° NNE 22:26:37 69° ESE 22:29:46 21° S
Cosmos 1328 Rocket 3.9 22:24:40 15° SSW 22:28:08 60° WNW 22:32:27 10° N
Cosmos 2112 Rocket 4.4 22:28:53 21° S 22:32:00 45° ESE 22:36:56 10° NE
Lacrosse 5 rocket 1.3 22:30:44 24° SSW 22:32:25 40° SE 22:35:44 10° ENE
CZ-2C R/B 3.4 22:31:43 14° SE 22:35:53 45° ENE 22:40:51 10° N
USA 81 4.1 22:32:02 10° N 22:37:20 81° E 22:40:53 21° S
NOSS 2-3 (E) 3.8 22:35:55 10° WSW 22:39:32 58° NW 22:43:29 10° NE
Cosmos 1371 Rocket 4.0 22:34:50 10° NNW 22:40:07 80° WSW 22:43:38 21° SSE
USA 215 4.1 22:37:29 19° S 22:41:13 32° SW 22:47:00 10° WNW
PSLV R/B 3.9 22:37:19 10° NNE 22:41:55 60° E 22:44:44 23° S
Cosmos 1869 Rocket 3.7 22:41:49 10° N 22:46:06 64° ENE 22:48:44 22° SSE
Cosmos 1452 Rocket 4.5 22:41:59 10° NNW 22:47:00 43° NE 22:52:01 10° SE
Cosmos 1110 Rocket 4.4 22:42:04 10° NNW 22:47:14 60° ENE 22:51:24 15° SE
GEOS 3 Rocket 4.2 22:45:16 21° S 22:48:32 45° SW 22:53:43 10° NW
MetOp-A 3.5 22:53:36 22° SSE 22:56:00 66° ENE 22:59:48 10° N
NOSS 2-1 (D) 3.8 22:55:59 28° SSE 22:56:44 31° SE 22:59:31 10° ENE
Cosmos 2154 Rocket 4.0 22:51:08 10° N 22:57:23 81° E 23:01:51 20° SSE
Cosmos 2184 Rocket 4.0 22:52:06 10° N 22:58:23 87° E 23:02:54 20° S
Cosmos 1515 Rocket 3.7 22:55:38 21° SSW 22:58:28 70° WNW 23:02:49 10° N
NOSS 2-1 (C) 4.0 22:59:06 26° SSE 22:59:46 28° SE 23:02:31 10° ENE
USA-17 4.3 22:57:07 10° NW 23:00:20 76° NE 23:02:27 19° SE
Cosmos 1833 Rocket 4.2 22:56:52 10° NW 23:01:16 24° WSW 23:04:36 14° SSW
Spot 4 4.4 22:59:30 21° SSW 23:02:28 47° W 23:07:08 10° NNW
USA 59 Rocket -0.2 23:01:29 30° S 23:02:30 40° SE 23:05:22 10° ENE
Cosmos 1733 Rocket 3.8 23:02:03 10° N 23:06:11 43° ENE 23:09:08 17° SE
SAR-Lupe-2 3.3 23:05:49 31° S 23:07:12 73° WSW 23:10:26 10° NNW
Cosmos 2082 Rocket 2.2 23:02:02 10° NNW 23:07:42 84° WSW 23:11:51 19° SSE
Okean 3 3.3 23:09:18 25° SSW 23:11:34 76° WNW 23:15:35 10° N
Cosmos 2278 Rocket 2.2 23:09:54 19° SSW 23:14:03 78° ESE 23:19:45 10° NNE
Cosmos 1331 Rocket 3.9 23:14:47 10° NNW 23:19:57 85° WSW 23:23:33 20° SSE
Okean 1-7 3.9 23:20:00 20° SSE 23:22:20 37° E 23:26:15 10° NNE
Cosmos 1400 Rocket 3.7 23:20:29 10° NNW 23:23:50 33° W 23:25:30 22° SW
CZ-2C R/B 3.2 23:20:18 10° NNE 23:25:57 89° ESE 23:29:38 21° SSW
COSMOS 2406 3.4 23:20:18 10° NNW 23:26:01 72° ENE 23:31:27 11° SE
Cosmos 1680 Rocket 3.9 23:22:44 15° SW 23:27:03 61° WNW 23:32:14 10° NNE
Cosmos 494 Rocket 4.2 23:24:38 16° SW 23:28:46 69° WNW 23:34:02 10° NNE
NOSS 3-2 (C) 4.5 23:24:37 10° W 23:29:50 45° NNW 23:36:12 10° NE
IRIDIUM 106 4.5 23:26:41 10° N 23:31:56 72° E 23:35:33 20° SSE
Helios 1B rocket 4.4 23:31:46 10° WSW 23:33:09 12° W 23:34:33 10° WNW
Cosmos 1048 Rocket 4.0 23:31:19 22° SSW 23:34:42 73° ESE 23:39:58 10° NNE
Cosmos 1812 3.5 23:34:57 10° NW 23:35:32 13° WNW 23:35:32 13° WNW
Cosmos 1328 3.4 23:35:16 29° S 23:36:59 82° E 23:40:33 10° NNE
ARIANE 5 R/B 4.3 23:36:34 14° SW 23:39:01 22° W 23:42:29 10° NW
ACS3 Solar Sail 1.9 23:33:32 10° NNE 23:39:12 60° E 23:43:12 20° S
USA 238 DEB 3.6 23:36:15 11° SW 23:42:17 87° NW 23:49:15 10° NE
Lacrosse 4 Rocket 3.7 23:38:52 10° NNW 23:42:23 25° NE 23:45:54 10° E
USA 238 3.6 23:36:32 11° SW 23:42:30 88° NW 23:49:27 10° NE
Geosat 4.2 23:41:32 10° NE 23:46:30 59° ESE 23:49:42 22° S
BREEZE-M DEB (TANK) 3.1 23:39:24 10° W 23:50:28 63° SSW 23:54:08 10° ESE
ALOS 2 4.4 23:49:18 13° SW 23:51:39 19° W 23:54:50 10° NW
SWAS 4.3 23:52:23 24° SSW 23:54:41 72° ESE 23:58:45 10° NE
TIMED 4.4 23:53:01 23° SSW 23:55:37 90° SSE 23:59:54 10° NNE
Cosmos 1441 Rocket 4.2 23:54:17 17° WSW 23:56:08 29° WNW 23:59:02 10° N
